Flag for Paraguay Weather past 2 weeks in Ciudad del Este, Paraguay

Now
59 °F

Sunny.


Feels Like: 57 °F
Forecast: 57 / 72 °F
Wind: 10 mph from East

Location: Foz Do Iguacu Aeroporto

Current Time: Jul 28, 2014 at 6:57:03 AM

Latest Report: Jul 28, 2014 at 6:00 AM


Visibility: 10 mi

Pressure: 30.24 "Hg

Humidity: 88%

Dew point: 55 °F

Location of Ciudad del EsteLocation

Historic Weather in Ciudad del Este — Graph

°F

Ciudad del Este temperature yesterday

Maximum temperature yesterday: 72 °F (at 2:00 PM)
Minimum temperature yesterday: 43 °F (at 2:00 AM)
Average temperature yesterday: 58 °F

Past Weeks' High & Low Weather Summary

 TemperatureHumidityPressure
High82 °F (Jul 15, 2:00 PM)100% (Jul 13, 9:00 PM)30.33 "Hg (Jul 13, 9:00 PM)
Low41 °F (Jul 19, 7:00 AM)36% (Jul 21, 2:00 PM)29.65 "Hg (Jul 23, 4:00 PM)
Average61 °F81%30.10 "Hg
* Reported Jul 13 5:00 AM — Jul 28 5:00 AM, Ciudad del Este, Weather by CustomWeather, © 2014

Note: Actual official high and low records may vary slightly from our data, if they occured in-between our weather recording intervals... More about our weather records

Advertising

Ciudad del Este weather history for previous 24 hours

 ConditionsComfort  
Time TempWeatherWind HumidityBarometerVisibility
5:00 AM
Jul 28
59 °FClear.8 mph88%30.24 "Hg10 mi
4:00 AM61 °FClear.6 mph88%30.21 "Hg10 mi
3:00 AM61 °FPassing clouds.8 mph88%30.21 "HgN/A
2:00 AM61 °FPassing clouds.7 mph88%30.21 "HgN/A
1:00 AM61 °FPassing clouds.7 mph94%30.24 "HgN/A
12:00 AM63 °FPassing clouds.8 mph88%30.24 "HgN/A
11:00 PM
Jul 27
63 °FPassing clouds.6 mph88%30.24 "HgN/A
10:00 PM64 °FPassing clouds.5 mph78%30.24 "HgN/A
9:00 PM64 °FClear.3 mph78%30.24 "Hg10 mi
8:00 PM64 °FClear.2 mph78%30.21 "Hg10 mi
7:00 PM64 °FClear.2 mph78%30.21 "Hg10 mi
6:00 PM66 °FClear.7 mph68%30.18 "Hg10 mi
5:00 PM64 °FClear.2 mph78%30.18 "Hg10 mi
4:00 PM72 °FSunny.7 mph53%30.15 "Hg10 mi
3:00 PM72 °FSunny.7 mph50%30.15 "Hg10 mi
2:00 PM72 °FSunny.5 mph50%30.15 "Hg10 mi
1:00 PM70 °FSunny.5 mph53%30.18 "Hg10 mi
12:00 PM66 °FSunny.8 mph60%30.21 "Hg10 mi
11:00 AM63 °FSunny.9 mph68%30.24 "Hg10 mi
10:00 AM59 °FSunny.12 mph72%30.24 "Hg10 mi
9:00 AM54 °FSunny.10 mph88%30.24 "Hg10 mi
8:00 AM50 °FSunny.No wind94%30.24 "Hg10 mi
7:00 AM46 °FSunny.5 mph93%30.21 "Hg10 mi
6:00 AM45 °FSunny.6 mph93%30.18 "Hg10 mi
Weather by CustomWeather, © 2014

See weather overviewHow to use our weather pages